Private Wetterstation Wechselburg
Wetterdaten: Mittwoch, 23.05.2018
Datum Zeit Temp. +2m Bodentemp. Temp.+5cm Temp. Wind Windchill X Diff Temp. Feuchte +2m Feuchte +5cm Luftdruck Regen Wind Richtung Richtung Sonnenschein Taupunkt Windchill Windben
23.05.2018 00:00 13,6 C 16,6 C 13,6 C 13,1 C 12,1 C 0,0 C 74 % 78 % 1016,3 hPa 0,0 l/m 0,0 km/h (0 Bft) S 180 0 min 9,1 C 12,1 C 0,0 km/h (0 Bft)
23.05.2018 00:05 13,6 C 16,6 C 13,5 C 13,1 C 12,1 C 0,0 C 74 % 79 % 1016,3 hPa 0,0 l/m 0,0 km/h (0 Bft) W 270 0 min 9,1 C 12,1 C 0,0 km/h (0 Bft)
23.05.2018 00:11 13,5 C 16,6 C 13,3 C 13,0 C 12,0 C 0,0 C 74 % 79 % 1016,3 hPa 0,0 l/m 0,0 km/h (0 Bft) N 0 0 min 9,0 C 12,0 C 0,0 km/h (0 Bft)
23.05.2018 00:26 13,2 C 16,6 C 13,1 C 12,8 C 12,0 C 0,0 C 76 % 81 % 1016,4 hPa 0,0 l/m 0,2 km/h (0 Bft) O-NO 67 0 min 9,1 C 12,0 C 0,0 km/h (0 Bft)
23.05.2018 00:27 13,2 C 16,6 C 13,1 C 12,8 C 12,0 C 0,0 C 76 % 81 % 1016,4 hPa 0,0 l/m 0,2 km/h (0 Bft) O-NO 67 0 min 9,1 C 12,0 C 0,0 km/h (0 Bft)
23.05.2018 00:40 12,9 C 16,6 C 12,8 C 12,4 C 11,5 C 0,0 C 77 % 81 % 1016,4 hPa 0,0 l/m 0,0 km/h (0 Bft) N-NO 22 0 min 9,0 C 11,5 C 0,0 km/h (0 Bft)
23.05.2018 00:45 12,8 C 16,6 C 12,7 C 12,3 C 11,4 C 0,0 C 77 % 81 % 1016,4 hPa 0,0 l/m 0,0 km/h (0 Bft) N-NW 337 0 min 8,9 C 11,4 C 0,0 km/h (0 Bft)
23.05.2018 00:50 12,7 C 16,6 C 12,6 C 12,3 C 11,4 C 0,0 C 78 % 82 % 1016,4 hPa 0,0 l/m 0,0 km/h (0 Bft) NO 45 0 min 9,0 C 11,4 C 0,0 km/h (0 Bft)
23.05.2018 00:55 12,7 C 16,6 C 12,7 C 12,3 C 11,5 C 0,0 C 78 % 82 % 1016,7 hPa 0,0 l/m 0,0 km/h (0 Bft) NO 45 0 min 9,0 C 11,5 C 0,0 km/h (0 Bft)
23.05.2018 01:00 12,7 C 16,6 C 12,7 C 12,3 C 11,5 C 0,0 C 78 % 82 % 1016,7 hPa 0,0 l/m 0,0 km/h (0 Bft) SW 225 0 min 9,0 C 11,5 C 0,0 km/h (0 Bft)
23.05.2018 01:05 12,6 C 16,6 C 12,4 C 12,2 C 11,3 C 0,0 C 78 % 82 % 1016,7 hPa 0,0 l/m 0,0 km/h (0 Bft) NW 315 0 min 8,9 C 11,3 C 0,0 km/h (0 Bft)
23.05.2018 01:10 12,5 C 16,6 C 12,4 C 12,0 C 11,1 C 0,0 C 78 % 82 % 1016,7 hPa 0,0 l/m 0,0 km/h (0 Bft) S-SO 157 0 min 8,8 C 11,1 C 0,0 km/h (0 Bft)
23.05.2018 01:15 12,3 C 16,6 C 12,2 C 11,8 C 10,9 C 0,0 C 79 % 82 % 1016,8 hPa 0,0 l/m 0,0 km/h (0 Bft) NO 45 0 min 8,8 C 10,9 C 0,0 km/h (0 Bft)
23.05.2018 01:20 12,3 C 16,6 C 12,2 C 11,8 C 10,9 C 0,0 C 79 % 83 % 1016,8 hPa 0,0 l/m 0,0 km/h (0 Bft) N-NO 22 0 min 8,8 C 10,9 C 0,0 km/h (0 Bft)
23.05.2018 01:25 12,1 C 16,6 C 12,2 C 11,6 C 10,7 C 0,0 C 79 % 83 % 1016,8 hPa 0,0 l/m 0,0 km/h (0 Bft) N-NW 337 0 min 8,6 C 10,7 C 0,0 km/h (0 Bft)
23.05.2018 01:30 12,1 C 16,6 C 12,1 C 11,6 C 10,6 C 0,0 C 79 % 83 % 1016,8 hPa 0,0 l/m 0,0 km/h (0 Bft) NO 45 0 min 8,6 C 10,6 C 0,0 km/h (0 Bft)
23.05.2018 01:35 12,0 C 16,5 C 12,0 C 11,5 C 10,6 C 0,0 C 79 % 83 % 1016,9 hPa 0,0 l/m 0,0 km/h (0 Bft) N 360 0 min 8,5 C 10,6 C 0,0 km/h (0 Bft)
23.05.2018 01:40 11,9 C 16,5 C 11,9 C 11,4 C 10,5 C 0,0 C 80 % 84 % 1016,9 hPa 0,0 l/m 0,0 km/h (0 Bft) NW 315 0 min 8,6 C 10,5 C 0,0 km/h (0 Bft)
23.05.2018 01:45 11,9 C 16,5 C 11,9 C 11,4 C 10,3 C 0,0 C 80 % 84 % 1016,9 hPa 0,0 l/m 0,0 km/h (0 Bft) S 180 0 min 8,6 C 10,3 C 0,0 km/h (0 Bft)
23.05.2018 01:50 11,7 C 16,5 C 11,7 C 11,3 C 10,4 C 0,0 C 80 % 84 % 1016,9 hPa 0,0 l/m 0,0 km/h (0 Bft) NO 45 0 min 8,4 C 10,4 C 0,0 km/h (0 Bft)
23.05.2018 01:55 11,6 C 16,5 C 11,7 C 11,2 C 10,4 C 0,0 C 80 % 84 % 1016,9 hPa 0,0 l/m 0,0 km/h (0 Bft) O-NO 67 0 min 8,3 C 10,4 C 0,0 km/h (0 Bft)
23.05.2018 02:00 11,7 C 16,5 C 11,7 C 11,3 C 10,5 C 0,0 C 81 % 84 % 1016,9 hPa 0,0 l/m 0,0 km/h (0 Bft) O-NO 67 0 min 8,5 C 10,5 C 0,0 km/h (0 Bft)
23.05.2018 02:05 11,6 C 16,5 C 11,7 C 11,2 C 10,5 C 0,0 C 81 % 84 % 1016,9 hPa 0,0 l/m 0,0 km/h (0 Bft) SW 225 0 min 8,5 C 10,5 C 0,0 km/h (0 Bft)
23.05.2018 02:11 11,5 C 16,4 C 11,6 C 11,1 C 10,2 C 0,0 C 81 % 84 % 1016,9 hPa 0,0 l/m 0,0 km/h (0 Bft) N 0 0 min 8,4 C 10,2 C 0,0 km/h (0 Bft)
23.05.2018 02:27 11,2 C 16,4 C 11,3 C 10,8 C 9,9 C 0,0 C 81 % 85 % 1016,9 hPa 0,0 l/m 0,0 km/h (0 Bft) NO 45 0 min 8,1 C 9,9 C 0,0 km/h (0 Bft)
23.05.2018 02:35 11,1 C 16,4 C 11,3 C 10,7 C 10,0 C 0,0 C 82 % 85 % 1016,9 hPa 0,0 l/m 0,0 km/h (0 Bft) NW 315 0 min 8,1 C 10,0 C 0,0 km/h (0 Bft)
23.05.2018 02:40 11,1 C 16,4 C 11,3 C 10,7 C 9,9 C 0,0 C 82 % 85 % 1016,9 hPa 0,0 l/m 0,0 km/h (0 Bft) W 270 0 min 8,1 C 9,9 C 0,0 km/h (0 Bft)
23.05.2018 02:45 10,9 C 16,4 C 11,1 C 10,5 C 9,7 C 0,0 C 82 % 85 % 1016,9 hPa 0,0 l/m 0,0 km/h (0 Bft) W 270 0 min 7,9 C 9,7 C 0,0 km/h (0 Bft)
23.05.2018 02:50 10,8 C 16,3 C 10,9 C 10,3 C 9,4 C 0,0 C 82 % 85 % 1016,9 hPa 0,0 l/m 0,0 km/h (0 Bft) W-SW 247 0 min 7,9 C 9,4 C 0,0 km/h (0 Bft)
23.05.2018 02:55 10,7 C 16,3 C 10,8 C 10,2 C 9,3 C 0,0 C 82 % 85 % 1017,1 hPa 0,0 l/m 0,0 km/h (0 Bft) N 360 0 min 7,8 C 9,3 C 0,0 km/h (0 Bft)
23.05.2018 03:00 10,7 C 16,3 C 10,8 C 10,2 C 9,3 C 0,0 C 82 % 86 % 1017,1 hPa 0,0 l/m 0,0 km/h (0 Bft) N-NO 22 0 min 7,8 C 9,3 C 0,0 km/h (0 Bft)
23.05.2018 03:05 10,5 C 16,3 C 10,8 C 10,1 C 9,2 C 0,0 C 82 % 86 % 1017,1 hPa 0,0 l/m 0,0 km/h (0 Bft) N-NO 22 0 min 7,6 C 9,2 C 0,0 km/h (0 Bft)
23.05.2018 03:10 10,4 C 16,3 C 10,8 C 10,0 C 9,2 C 0,0 C 83 % 86 % 1017,1 hPa 0,0 l/m 0,0 km/h (0 Bft) SW 225 0 min 7,6 C 9,2 C 0,0 km/h (0 Bft)
23.05.2018 03:15 10,4 C 16,3 C 10,7 C 10,0 C 9,2 C 0,0 C 83 % 86 % 1017,3 hPa 0,0 l/m 0,0 km/h (0 Bft) O-NO 67 0 min 7,6 C 9,2 C 0,0 km/h (0 Bft)
23.05.2018 03:20 10,4 C 16,3 C 10,6 C 10,0 C 9,3 C 0,0 C 83 % 86 % 1017,3 hPa 0,0 l/m 0,0 km/h (0 Bft) N-NO 22 0 min 7,6 C 9,3 C 0,0 km/h (0 Bft)
23.05.2018 03:25 10,3 C 16,3 C 10,7 C 10,0 C 9,3 C 0,0 C 83 % 86 % 1017,3 hPa 0,0 l/m 0,0 km/h (0 Bft) NW 315 0 min 7,5 C 9,3 C 0,0 km/h (0 Bft)
23.05.2018 03:30 10,2 C 16,3 C 10,7 C 9,9 C 9,2 C 0,0 C 83 % 87 % 1017,3 hPa 0,0 l/m 0,0 km/h (0 Bft) S 180 0 min 7,4 C 9,2 C 0,0 km/h (0 Bft)
23.05.2018 03:35 10,3 C 16,3 C 10,6 C 9,9 C 9,0 C 0,0 C 83 % 86 % 1017,1 hPa 0,0 l/m 0,0 km/h (0 Bft) O-NO 67 0 min 7,5 C 9,0 C 0,0 km/h (0 Bft)
23.05.2018 03:40 10,1 C 16,2 C 10,4 C 9,7 C 9,0 C 0,0 C 83 % 87 % 1017,1 hPa 0,0 l/m 0,0 km/h (0 Bft) W 270 0 min 7,3 C 9,0 C 0,0 km/h (0 Bft)
23.05.2018 03:45 10,0 C 16,2 C 10,4 C 9,6 C 8,9 C 0,0 C 83 % 87 % 1017,1 hPa 0,0 l/m 0,0 km/h (0 Bft) W-SW 247 0 min 7,2 C 8,9 C 0,0 km/h (0 Bft)
23.05.2018 03:50 10,0 C 16,3 C 10,4 C 9,6 C 8,8 C 0,0 C 83 % 87 % 1017,1 hPa 0,0 l/m 0,0 km/h (0 Bft) O-NO 67 0 min 7,2 C 8,8 C 0,0 km/h (0 Bft)
23.05.2018 03:55 10,0 C 16,2 C 10,3 C 9,6 C 8,9 C 0,0 C 84 % 87 % 1017,4 hPa 0,0 l/m 0,0 km/h (0 Bft) N-NO 22 0 min 7,4 C 8,9 C 0,0 km/h (0 Bft)
23.05.2018 04:00 9,9 C 16,2 C 10,2 C 9,6 C 8,9 C 0,0 C 84 % 87 % 1017,4 hPa 0,0 l/m 0,0 km/h (0 Bft) NO 45 0 min 7,3 C 8,9 C 0,0 km/h (0 Bft)
23.05.2018 04:05 9,8 C 16,2 C 10,2 C 9,4 C 8,7 C 0,0 C 84 % 87 % 1017,4 hPa 0,0 l/m 0,0 km/h (0 Bft) S-SW 202 0 min 7,2 C 8,7 C 0,0 km/h (0 Bft)
23.05.2018 04:11 9,7 C 16,2 C 10,3 C 9,4 C 8,7 C 0,0 C 84 % 87 % 1017,4 hPa 0,0 l/m 0,0 km/h (0 Bft) N 0 0 min 7,1 C 8,7 C 0,0 km/h (0 Bft)
23.05.2018 04:26 9,6 C 16,1 C 10,2 C 9,4 C 9,0 C 0,0 C 85 % 88 % 1017,4 hPa 0,0 l/m 0,2 km/h (0 Bft) N-NO 22 0 min 7,2 C 9,0 C 2,1 km/h (1 Bft)
23.05.2018 04:40 9,4 C 16,1 C 10,0 C 9,2 C 8,7 C 0,0 C 85 % 87 % 1017,4 hPa 0,0 l/m 0,0 km/h (0 Bft) NO 45 0 min 7,0 C 8,7 C 0,0 km/h (0 Bft)
23.05.2018 04:45 9,5 C 16,1 C 10,0 C 9,2 C 8,7 C 0,0 C 85 % 88 % 1017,4 hPa 0,0 l/m 0,2 km/h (0 Bft) NO 45 0 min 7,1 C 8,7 C 0,0 km/h (0 Bft)
23.05.2018 04:50 9,3 C 16,1 C 10,0 C 9,1 C 8,7 C 0,0 C 85 % 88 % 1017,4 hPa 0,0 l/m 0,2 km/h (0 Bft) S 180 0 min 6,9 C 8,7 C 0,0 km/h (0 Bft)
23.05.2018 04:55 9,3 C 16,1 C 10,0 C 9,1 C 8,6 C 0,0 C 85 % 88 % 1017,3 hPa 0,0 l/m 0,0 km/h (0 Bft) S 180 0 min 6,9 C 8,6 C 0,0 km/h (0 Bft)
23.05.2018 05:00 9,3 C 16,0 C 9,9 C 9,0 C 8,5 C 0,0 C 85 % 88 % 1017,3 hPa 0,0 l/m 0,0 km/h (0 Bft) NW 315 0 min 6,9 C 8,5 C 0,0 km/h (0 Bft)
23.05.2018 05:05 9,2 C 16,0 C 9,9 C 9,0 C 8,5 C 0,0 C 85 % 88 % 1017,3 hPa 0,0 l/m 0,0 km/h (0 Bft) NW 315 0 min 6,8 C 8,5 C 0,0 km/h (0 Bft)
23.05.2018 05:10 9,1 C 16,1 C 9,8 C 8,9 C 8,4 C 0,0 C 85 % 88 % 1017,3 hPa 0,0 l/m 0,0 km/h (0 Bft) W 270 0 min 6,7 C 8,4 C 0,0 km/h (0 Bft)
23.05.2018 05:15 9,1 C 16,0 C 9,7 C 8,9 C 8,4 C 0,0 C 85 % 88 % 1017,2 hPa 0,0 l/m 0,0 km/h (0 Bft) N-NW 337 0 min 6,7 C 8,4 C 0,0 km/h (0 Bft)
23.05.2018 05:20 9,1 C 16,1 C 9,9 C 8,9 C 8,5 C 0,0 C 85 % 88 % 1017,2 hPa 0,0 l/m 0,0 km/h (0 Bft) N-NO 22 0 min 6,7 C 8,5 C 0,0 km/h (0 Bft)
23.05.2018 05:25 9,1 C 16,0 C 9,7 C 8,9 C 8,5 C 0,0 C 85 % 88 % 1017,2 hPa 0,0 l/m 0,3 km/h (0 Bft) O-NO 67 0 min 6,7 C 8,5 C 1,9 km/h (1 Bft)
23.05.2018 05:30 9,1 C 15,9 C 9,9 C 9,0 C 8,8 C 0,0 C 85 % 88 % 1017,2 hPa 0,0 l/m 0,3 km/h (0 Bft) S 180 0 min 6,7 C 8,8 C 0,0 km/h (0 Bft)
23.05.2018 05:35 9,0 C 15,9 C 9,8 C 8,9 C 8,7 C 0,0 C 85 % 88 % 1017,7 hPa 0,0 l/m 0,2 km/h (0 Bft) SW 225 0 min 6,6 C 8,7 C 0,0 km/h (0 Bft)
23.05.2018 05:40 8,9 C 15,9 C 9,9 C 8,8 C 8,7 C 0,0 C 85 % 88 % 1017,7 hPa 0,0 l/m 0,0 km/h (0 Bft) W 270 0 min 6,5 C 8,7 C 0,0 km/h (0 Bft)
23.05.2018 05:45 8,9 C 15,9 C 9,8 C 8,8 C 8,7 C 0,0 C 85 % 88 % 1017,7 hPa 0,0 l/m 0,0 km/h (0 Bft) W-SW 247 0 min 6,5 C 8,7 C 0,0 km/h (0 Bft)
23.05.2018 05:50 8,9 C 16,0 C 9,9 C 8,8 C 8,7 C 0,0 C 85 % 88 % 1017,7 hPa 0,0 l/m 0,0 km/h (0 Bft) O-NO 67 0 min 6,5 C 8,7 C 1,6 km/h (1 Bft)
23.05.2018 05:55 8,9 C 15,9 C 10,0 C 8,9 C 8,9 C 0,0 C 86 % 88 % 1018,0 hPa 0,0 l/m 0,0 km/h (0 Bft) NW 315 0 min 6,7 C 8,9 C 0,0 km/h (0 Bft)
23.05.2018 06:00 8,9 C 15,9 C 10,1 C 9,2 C 9,2 C 0,3 C 86 % 88 % 1018,0 hPa 0,0 l/m 0,0 km/h (0 Bft) N-NO 22 0 min 6,7 C 9,2 C 0,0 km/h (0 Bft)
23.05.2018 06:05 8,9 C 15,9 C 10,3 C 9,4 C 9,4 C 0,5 C 86 % 88 % 1018,0 hPa 0,0 l/m 0,0 km/h (0 Bft) W 270 0 min 6,7 C 9,4 C 0,0 km/h (0 Bft)
23.05.2018 06:11 8,9 C 15,8 C 10,1 C 9,5 C 9,5 C 0,6 C 86 % 88 % 1018,0 hPa 0,0 l/m 0,0 km/h (0 Bft) N 0 0 min 6,7 C 9,5 C 0,0 km/h (0 Bft)
23.05.2018 06:26 9,1 C 15,8 C 10,7 C 10,3 C 10,3 C 1,2 C 86 % 89 % 1018,4 hPa 0,0 l/m 0,0 km/h (0 Bft) S-SO 157 0 min 6,9 C 10,3 C 0,0 km/h (0 Bft)
23.05.2018 06:40 9,2 C 15,8 C 10,8 C 10,7 C 10,7 C 1,5 C 86 % 88 % 1018,4 hPa 0,0 l/m 0,0 km/h (0 Bft) W-SW 247 0 min 7,0 C 10,7 C 0,0 km/h (0 Bft)
23.05.2018 06:45 9,2 C 15,7 C 11,0 C 11,0 C 11,0 C 1,8 C 86 % 88 % 1018,4 hPa 0,0 l/m 0,0 km/h (0 Bft) NO 45 0 min 7,0 C 11,0 C 0,0 km/h (0 Bft)
23.05.2018 06:50 9,5 C 15,7 C 11,3 C 11,5 C 11,5 C 2,0 C 86 % 88 % 1018,4 hPa 0,0 l/m 0,0 km/h (0 Bft) SW 225 0 min 7,3 C 11,5 C 0,0 km/h (0 Bft)
23.05.2018 06:55 9,4 C 15,7 C 11,5 C 11,7 C 11,7 C 2,3 C 86 % 88 % 1018,4 hPa 0,0 l/m 0,0 km/h (0 Bft) SW 225 0 min 7,2 C 11,7 C 0,0 km/h (0 Bft)
23.05.2018 07:00 9,6 C 15,7 C 11,6 C 12,8 C 12,8 C 3,2 C 86 % 88 % 1018,4 hPa 0,0 l/m 0,0 km/h (0 Bft) W-SW 247 5 min 7,4 C 12,8 C 0,0 km/h (0 Bft)
23.05.2018 07:05 9,6 C 15,7 C 12,0 C 14,6 C 14,6 C 5,0 C 86 % 88 % 1018,4 hPa 0,0 l/m 0,0 km/h (0 Bft) W-SW 247 5 min 7,4 C 14,6 C 0,0 km/h (0 Bft)
23.05.2018 07:10 10,0 C 15,7 C 12,5 C 16,3 C 16,3 C 6,3 C 87 % 88 % 1018,4 hPa 0,0 l/m 0,0 km/h (0 Bft) O-SO 112 5 min 7,9 C 16,3 C 0,0 km/h (0 Bft)
23.05.2018 07:15 10,4 C 15,7 C 12,8 C 17,4 C 17,4 C 7,0 C 87 % 88 % 1018,5 hPa 0,0 l/m 0,0 km/h (0 Bft) O 90 5 min 8,3 C 17,4 C 0,0 km/h (0 Bft)
23.05.2018 07:20 11,3 C 15,6 C 13,5 C 19,4 C 19,4 C 8,1 C 86 % 87 % 1018,5 hPa 0,0 l/m 0,0 km/h (0 Bft) O-NO 67 5 min 9,0 C 19,4 C 0,0 km/h (0 Bft)
23.05.2018 07:25 11,8 C 15,6 C 13,9 C 20,2 C 20,2 C 8,4 C 87 % 86 % 1018,5 hPa 0,0 l/m 0,3 km/h (0 Bft) N-NO 22 5 min 9,7 C 20,2 C 2,4 km/h (1 Bft)
23.05.2018 07:30 12,9 C 15,6 C 14,2 C 20,9 C 20,9 C 8,0 C 86 % 84 % 1018,5 hPa 0,0 l/m 1,3 km/h (1 Bft) O-SO 112 5 min 10,6 C 20,9 C 1,9 km/h (1 Bft)
23.05.2018 07:35 13,5 C 15,6 C 14,5 C 21,4 C 21,4 C 7,9 C 86 % 83 % 1019,0 hPa 0,0 l/m 1,4 km/h (1 Bft) O-NO 67 5 min 11,2 C 21,4 C 3,5 km/h (1 Bft)
23.05.2018 07:40 14,5 C 15,6 C 14,9 C 22,1 C 22,1 C 7,6 C 84 % 82 % 1019,0 hPa 0,0 l/m 1,0 km/h (0 Bft) NW 315 5 min 11,8 C 22,1 C 0,0 km/h (0 Bft)
23.05.2018 07:45 15,1 C 15,6 C 15,0 C 23,3 C 23,3 C 8,2 C 84 % 82 % 1019,0 hPa 0,0 l/m 0,6 km/h (0 Bft) N-NW 337 5 min 12,4 C 23,3 C 2,3 km/h (1 Bft)
23.05.2018 07:50 15,6 C 15,6 C 15,4 C 24,3 C 24,3 C 8,7 C 81 % 81 % 1019,0 hPa 0,0 l/m 0,3 km/h (0 Bft) NW 315 5 min 12,3 C 24,3 C 0,0 km/h (0 Bft)
23.05.2018 07:55 15,9 C 15,5 C 15,7 C 24,3 C 24,3 C 8,4 C 80 % 81 % 1018,9 hPa 0,0 l/m 0,6 km/h (0 Bft) NO 45 5 min 12,5 C 24,3 C 3,9 km/h (1 Bft)
23.05.2018 08:00 16,0 C 15,5 C 15,9 C 23,6 C 23,6 C 7,6 C 78 % 80 % 1018,9 hPa 0,0 l/m 0,8 km/h (0 Bft) N-NO 22 5 min 12,2 C 23,6 C 0,0 km/h (0 Bft)
23.05.2018 08:05 16,3 C 15,5 C 15,9 C 23,9 C 23,9 C 7,6 C 78 % 79 % 1018,9 hPa 0,0 l/m 1,1 km/h (1 Bft) NO 45 5 min 12,5 C 23,9 C 4,5 km/h (1 Bft)
23.05.2018 08:11 16,6 C 15,5 C 16,0 C 22,3 C 22,3 C 5,7 C 76 % 77 % 1018,9 hPa 0,0 l/m 1,4 km/h (1 Bft) N 0 6 min 12,3 C 22,3 C 0,0 km/h (0 Bft)
23.05.2018 08:26 16,5 C 15,5 C 16,3 C 20,0 C 20,0 C 3,5 C 73 % 77 % 1019,1 hPa 0,0 l/m 2,6 km/h (1 Bft) O-NO 67 15 min 11,6 C 20,0 C 6,1 km/h (2 Bft)
23.05.2018 08:40 17,2 C 15,5 C 16,8 C 20,8 C 20,8 C 3,6 C 74 % 76 % 1019,4 hPa 0,0 l/m 2,1 km/h (1 Bft) O-NO 67 14 min 12,5 C 20,8 C 6,4 km/h (2 Bft)
23.05.2018 08:45 17,4 C 15,5 C 17,0 C 21,3 C 21,3 C 3,9 C 74 % 77 % 1019,4 hPa 0,0 l/m 1,6 km/h (1 Bft) N-NW 337 5 min 12,7 C 21,3 C 0,0 km/h (0 Bft)
23.05.2018 08:50 18,1 C 15,5 C 17,3 C 23,5 C 23,5 C 5,4 C 73 % 77 % 1019,4 hPa 0,0 l/m 1,8 km/h (1 Bft) O-NO 67 5 min 13,2 C 23,5 C 3,1 km/h (1 Bft)
23.05.2018 08:55 18,3 C 15,5 C 17,5 C 23,5 C 23,5 C 5,2 C 71 % 76 % 1019,8 hPa 0,0 l/m 2,3 km/h (1 Bft) O 90 5 min 12,9 C 23,5 C 4,2 km/h (1 Bft)
23.05.2018 09:00 18,5 C 15,5 C 17,3 C 22,9 C 22,9 C 4,4 C 71 % 76 % 1019,8 hPa 0,0 l/m 2,4 km/h (1 Bft) NO 45 5 min 13,1 C 22,9 C 0,0 km/h (0 Bft)
23.05.2018 09:05 18,5 C 15,5 C 17,3 C 22,9 C 22,9 C 4,4 C 71 % 76 % 1019,8 hPa 0,0 l/m 1,4 km/h (1 Bft) O-NO 67 5 min 13,1 C 22,9 C 1,9 km/h (1 Bft)
23.05.2018 09:10 18,7 C 15,6 C 17,4 C 23,3 C 23,3 C 4,6 C 71 % 77 % 1019,8 hPa 0,0 l/m 1,1 km/h (1 Bft) N-NW 337 5 min 13,3 C 23,3 C 0,0 km/h (0 Bft)
23.05.2018 09:15 18,7 C 15,6 C 17,7 C 24,2 C 24,2 C 5,5 C 71 % 77 % 1019,8 hPa 0,0 l/m 1,4 km/h (1 Bft) N-NO 22 5 min 13,3 C 24,2 C 2,3 km/h (1 Bft)
23.05.2018 09:20 18,8 C 15,6 C 17,9 C 23,9 C 23,9 C 5,1 C 70 % 75 % 1019,8 hPa 0,0 l/m 2,3 km/h (1 Bft) N-NO 22 5 min 13,2 C 23,9 C 4,5 km/h (1 Bft)
23.05.2018 09:25 18,9 C 15,5 C 18,0 C 22,7 C 22,7 C 3,8 C 71 % 75 % 1019,8 hPa 0,0 l/m 2,9 km/h (1 Bft) O-NO 67 5 min 13,5 C 22,7 C 6,6 km/h (2 Bft)
23.05.2018 09:30 19,1 C 15,5 C 18,2 C 22,3 C 22,3 C 3,2 C 70 % 74 % 1019,8 hPa 0,0 l/m 2,6 km/h (1 Bft) O-NO 67 0 min 13,5 C 22,3 C 2,7 km/h (1 Bft)
23.05.2018 09:35 19,2 C 15,5 C 18,4 C 22,0 C 22,0 C 2,8 C 69 % 75 % 1019,8 hPa 0,0 l/m 2,7 km/h (1 Bft) O-NO 67 0 min 13,4 C 22,0 C 1,9 km/h (1 Bft)
23.05.2018 09:40 19,5 C 15,5 C 18,7 C 21,8 C 21,8 C 2,3 C 70 % 75 % 1019,8 hPa 0,0 l/m 2,7 km/h (1 Bft) NO 45 0 min 13,9 C 21,8 C 3,2 km/h (1 Bft)
23.05.2018 09:45 19,4 C 15,5 C 18,7 C 21,8 C 21,8 C 2,4 C 69 % 74 % 1019,8 hPa 0,0 l/m 2,6 km/h (1 Bft) NW 315 0 min 13,6 C 21,8 C 2,9 km/h (1 Bft)
23.05.2018 09:50 19,6 C 15,5 C 19,1 C 22,1 C 22,1 C 2,5 C 69 % 74 % 1019,8 hPa 0,0 l/m 3,4 km/h (1 Bft) O-NO 67 0 min 13,8 C 22,1 C 5,0 km/h (1 Bft)
23.05.2018 09:55 19,8 C 15,5 C 19,2 C 22,1 C 22,1 C 2,3 C 69 % 74 % 1019,8 hPa 0,0 l/m 3,2 km/h (1 Bft) O-NO 67 0 min 13,9 C 22,1 C 7,2 km/h (2 Bft)
23.05.2018 10:00 19,9 C 15,6 C 19,5 C 22,3 C 22,3 C 2,4 C 69 % 71 % 1019,8 hPa 0,0 l/m 4,0 km/h (1 Bft) O-NO 67 0 min 14,0 C 22,3 C 4,3 km/h (1 Bft)
23.05.2018 10:05 20,1 C 15,6 C 19,7 C 22,5 C 22,5 C 2,4 C 68 % 73 % 1019,8 hPa 0,0 l/m 4,0 km/h (1 Bft) O-NO 67 0 min 14,0 C 22,5 C 9,3 km/h (2 Bft)
23.05.2018 10:11 20,1 C 15,6 C 19,8 C 22,6 C 22,6 C 2,5 C 66 % 70 % 1019,8 hPa 0,0 l/m 5,5 km/h (1 Bft) N 0 0 min 13,5 C 22,6 C 11,1 km/h (2 Bft)
23.05.2018 10:26 19,6 C 15,6 C 19,7 C 22,5 C 22,5 C 2,9 C 67 % 70 % 1020,1 hPa 0,0 l/m 7,6 km/h (2 Bft) O-NO 67 0 min 13,3 C 22,5 C 15,9 km/h (3 Bft)
23.05.2018 10:40 20,1 C 15,6 C 20,3 C 23,4 C 23,4 C 3,3 C 67 % 70 % 1020,1 hPa 0,0 l/m 6,4 km/h (2 Bft) O-NO 67 14 min 13,8 C 23,4 C 10,0 km/h (2 Bft)
23.05.2018 10:45 20,3 C 15,7 C 20,4 C 23,8 C 23,8 C 3,5 C 68 % 70 % 1020,1 hPa 0,0 l/m 6,3 km/h (2 Bft) W 270 5 min 14,2 C 23,8 C 7,6 km/h (2 Bft)
23.05.2018 10:50 20,5 C 15,7 C 20,7 C 23,9 C 23,9 C 3,4 C 68 % 70 % 1020,1 hPa 0,0 l/m 4,8 km/h (1 Bft) O-NO 67 5 min 14,4 C 23,9 C 2,9 km/h (1 Bft)
23.05.2018 10:55 20,6 C 15,7 C 20,7 C 24,0 C 24,0 C 3,4 C 67 % 70 % 1020,0 hPa 0,0 l/m 4,2 km/h (1 Bft) O-NO 67 5 min 14,3 C 24,0 C 15,6 km/h (3 Bft)
23.05.2018 11:00 20,6 C 15,7 C 20,8 C 23,9 C 23,9 C 3,3 C 66 % 68 % 1020,0 hPa 0,0 l/m 6,9 km/h (2 Bft) NO 45 5 min 14,0 C 23,9 C 11,3 km/h (2 Bft)
23.05.2018 11:05 20,6 C 15,7 C 20,9 C 23,9 C 23,9 C 3,3 C 66 % 68 % 1020,0 hPa 0,0 l/m 9,2 km/h (2 Bft) O-NO 67 5 min 14,0 C 23,9 C 16,1 km/h (3 Bft)
23.05.2018 11:10 20,9 C 15,7 C 21,3 C 24,5 C 24,5 C 3,6 C 65 % 67 % 1020,0 hPa 0,0 l/m 7,7 km/h (2 Bft) O-NO 67 5 min 14,1 C 24,5 C 10,3 km/h (2 Bft)
23.05.2018 11:15 21,0 C 15,8 C 21,3 C 24,4 C 24,4 C 3,4 C 66 % 69 % 1019,7 hPa 0,0 l/m 5,8 km/h (2 Bft) O-NO 67 5 min 14,4 C 24,4 C 7,7 km/h (2 Bft)
23.05.2018 11:20 21,3 C 15,7 C 21,6 C 24,3 C 24,3 C 3,0 C 66 % 68 % 1019,7 hPa 0,0 l/m 4,7 km/h (1 Bft) O-NO 67 0 min 14,7 C 24,3 C 3,4 km/h (1 Bft)
23.05.2018 11:25 21,5 C 15,7 C 21,8 C 24,3 C 24,3 C 2,8 C 66 % 68 % 1019,7 hPa 0,0 l/m 4,2 km/h (1 Bft) O-NO 67 0 min 14,9 C 24,3 C 2,9 km/h (1 Bft)
23.05.2018 11:30 22,0 C 15,7 C 22,1 C 25,2 C 25,2 C 3,2 C 65 % 67 % 1019,7 hPa 0,0 l/m 4,0 km/h (1 Bft) NO 45 0 min 15,1 C 25,2 C 3,9 km/h (1 Bft)
23.05.2018 11:35 22,1 C 15,7 C 22,2 C 25,7 C 25,7 C 3,6 C 65 % 68 % 1019,6 hPa 0,0 l/m 3,5 km/h (1 Bft) S 180 5 min 15,2 C 25,7 C 3,4 km/h (1 Bft)
23.05.2018 11:40 22,5 C 15,7 C 22,5 C 26,4 C 26,4 C 3,9 C 64 % 66 % 1019,6 hPa 0,0 l/m 3,7 km/h (1 Bft) O 90 5 min 15,3 C 26,4 C 7,4 km/h (2 Bft)
23.05.2018 11:45 22,4 C 15,8 C 22,7 C 26,9 C 26,9 C 4,5 C 63 % 64 % 1019,6 hPa 0,0 l/m 4,7 km/h (1 Bft) O-SO 112 5 min 15,0 C 26,9 C 6,1 km/h (2 Bft)
23.05.2018 11:50 22,5 C 15,8 C 22,9 C 27,3 C 27,3 C 4,8 C 62 % 63 % 1019,6 hPa 0,0 l/m 5,6 km/h (1 Bft) O-NO 67 5 min 14,8 C 27,3 C 12,7 km/h (3 Bft)
23.05.2018 11:55 22,5 C 15,8 C 22,8 C 27,3 C 27,3 C 4,8 C 62 % 63 % 1019,9 hPa 0,0 l/m 6,0 km/h (2 Bft) O-NO 67 5 min 14,8 C 27,3 C 9,7 km/h (2 Bft)
23.05.2018 12:00 22,6 C 15,8 C 23,1 C 27,4 C 27,4 C 4,8 C 62 % 63 % 1019,9 hPa 0,0 l/m 6,9 km/h (2 Bft) O-NO 67 5 min 14,9 C 27,4 C 11,1 km/h (2 Bft)
23.05.2018 12:05 22,9 C 15,8 C 23,5 C 27,6 C 27,6 C 4,7 C 61 % 62 % 1019,9 hPa 0,0 l/m 6,3 km/h (2 Bft) O-NO 67 5 min 15,0 C 27,6 C 6,0 km/h (2 Bft)
23.05.2018 12:11 23,1 C 15,9 C 23,7 C 27,9 C 27,9 C 4,8 C 61 % 60 % 1019,9 hPa 0,0 l/m 5,8 km/h (2 Bft) N 0 6 min 15,2 C 27,9 C 5,5 km/h (1 Bft)
23.05.2018 12:26 23,3 C 15,9 C 23,5 C 27,2 C 27,2 C 3,9 C 60 % 62 % 1019,4 hPa 0,0 l/m 7,1 km/h (2 Bft) O-NO 67 15 min 15,1 C 27,2 C 12,6 km/h (3 Bft)
23.05.2018 12:40 23,7 C 16,0 C 23,9 C 27,4 C 27,4 C 3,7 C 59 % 61 % 1019,6 hPa 0,0 l/m 5,8 km/h (2 Bft) O-NO 67 14 min 15,2 C 27,4 C 17,4 km/h (3 Bft)
23.05.2018 12:45 23,9 C 15,9 C 23,9 C 27,7 C 27,7 C 3,8 C 57 % 60 % 1019,6 hPa 0,0 l/m 5,8 km/h (2 Bft) O-NO 67 5 min 14,9 C 27,7 C 11,4 km/h (2 Bft)
23.05.2018 12:50 23,6 C 15,9 C 23,5 C 26,6 C 26,6 C 3,0 C 57 % 59 % 1019,6 hPa 0,0 l/m 7,2 km/h (2 Bft) O-NO 67 0 min 14,6 C 26,6 C 8,5 km/h (2 Bft)
23.05.2018 12:55 23,3 C 16,0 C 23,3 C 25,8 C 25,8 C 2,5 C 58 % 61 % 1019,4 hPa 0,0 l/m 8,0 km/h (2 Bft) O-NO 67 0 min 14,6 C 25,8 C 18,0 km/h (3 Bft)
23.05.2018 13:00 23,2 C 16,0 C 23,3 C 25,1 C 25,1 C 1,9 C 59 % 62 % 1019,4 hPa 0,0 l/m 6,1 km/h (2 Bft) O-NO 67 0 min 14,7 C 25,1 C 6,4 km/h (2 Bft)
23.05.2018 13:05 23,0 C 16,0 C 22,8 C 24,4 C 24,4 C 1,4 C 59 % 62 % 1019,4 hPa 0,0 l/m 5,6 km/h (1 Bft) W-SW 247 0 min 14,5 C 24,4 C 19,5 km/h (3 Bft)
23.05.2018 13:10 22,9 C 16,1 C 22,7 C 23,7 C 23,7 C 0,8 C 59 % 63 % 1019,4 hPa 0,0 l/m 5,5 km/h (1 Bft) N-NO 22 0 min 14,5 C 23,7 C 6,6 km/h (2 Bft)
23.05.2018 13:15 22,7 C 16,1 C 22,6 C 23,5 C 23,5 C 0,8 C 60 % 63 % 1019,7 hPa 0,0 l/m 4,7 km/h (1 Bft) O 90 0 min 14,5 C 23,5 C 5,8 km/h (2 Bft)
23.05.2018 13:20 22,7 C 16,1 C 22,4 C 23,4 C 23,4 C 0,7 C 60 % 63 % 1019,7 hPa 0,0 l/m 5,8 km/h (2 Bft) O-NO 67 0 min 14,5 C 23,4 C 9,0 km/h (2 Bft)
23.05.2018 13:25 22,5 C 16,1 C 22,4 C 23,3 C 23,3 C 0,8 C 60 % 63 % 1019,7 hPa 0,0 l/m 6,9 km/h (2 Bft) NO 45 0 min 14,3 C 23,3 C 13,2 km/h (3 Bft)
23.05.2018 13:30 22,7 C 16,1 C 22,6 C 23,5 C 23,5 C 0,8 C 61 % 64 % 1019,7 hPa 0,0 l/m 6,6 km/h (2 Bft) O 90 0 min 14,8 C 23,5 C 6,0 km/h (2 Bft)
23.05.2018 13:35 22,7 C 16,1 C 22,5 C 23,6 C 23,6 C 0,9 C 61 % 63 % 1019,7 hPa 0,0 l/m 5,8 km/h (2 Bft) NO 45 0 min 14,8 C 23,6 C 5,1 km/h (1 Bft)
23.05.2018 13:40 22,7 C 16,1 C 22,4 C 23,6 C 23,6 C 0,9 C 60 % 62 % 1019,7 hPa 0,0 l/m 5,1 km/h (1 Bft) O-NO 67 0 min 14,5 C 23,6 C 6,1 km/h (2 Bft)
23.05.2018 13:45 22,6 C 16,1 C 22,4 C 23,5 C 23,5 C 0,9 C 59 % 62 % 1019,7 hPa 0,0 l/m 5,8 km/h (2 Bft) O-NO 67 0 min 14,2 C 23,5 C 8,7 km/h (2 Bft)
23.05.2018 13:50 22,4 C 16,2 C 22,3 C 23,2 C 23,2 C 0,8 C 60 % 63 % 1019,7 hPa 0,0 l/m 6,9 km/h (2 Bft) O-NO 67 0 min 14,2 C 23,2 C 8,5 km/h (2 Bft)
23.05.2018 13:55 22,4 C 16,2 C 22,1 C 22,9 C 22,9 C 0,5 C 60 % 62 % 1019,9 hPa 0,0 l/m 7,1 km/h (2 Bft) O 90 0 min 14,2 C 22,9 C 10,0 km/h (2 Bft)
23.05.2018 14:00 22,3 C 16,2 C 21,9 C 22,6 C 22,6 C 0,3 C 59 % 62 % 1019,9 hPa 0,0 l/m 7,6 km/h (2 Bft) O-NO 67 0 min 13,9 C 22,6 C 12,7 km/h (3 Bft)
23.05.2018 14:05 22,1 C 16,2 C 21,7 C 22,3 C 22,3 C 0,2 C 59 % 63 % 1019,9 hPa 0,0 l/m 7,4 km/h (2 Bft) O-NO 67 0 min 13,7 C 22,3 C 6,1 km/h (2 Bft)
23.05.2018 14:11 22,1 C 16,2 C 21,6 C 22,1 C 22,0 C 0,0 C 60 % 63 % 1019,9 hPa 0,0 l/m 7,1 km/h (2 Bft) N 0 0 min 14,0 C 22,0 C 7,4 km/h (2 Bft)
23.05.2018 14:26 21,9 C 16,2 C 21,3 C 21,8 C 21,7 C 0,0 C 60 % 64 % 1019,9 hPa 0,0 l/m 7,2 km/h (2 Bft) NO 45 0 min 13,8 C 21,7 C 11,6 km/h (2 Bft)
23.05.2018 14:40 20,5 C 16,2 C 20,3 C 20,4 C 20,3 C 0,0 C 67 % 71 % 1020,5 hPa 0,0 l/m 5,3 km/h (1 Bft) O-NO 67 0 min 14,2 C 20,3 C 5,8 km/h (2 Bft)
23.05.2018 14:45 20,3 C 16,3 C 20,1 C 20,2 C 20,1 C 0,0 C 68 % 72 % 1020,5 hPa 0,0 l/m 4,8 km/h (1 Bft) O 90 0 min 14,2 C 20,1 C 2,6 km/h (1 Bft)
23.05.2018 14:50 20,1 C 16,4 C 19,9 C 20,0 C 19,7 C 0,0 C 70 % 73 % 1020,5 hPa 0,0 l/m 4,3 km/h (1 Bft) NO 45 0 min 14,5 C 19,7 C 7,1 km/h (2 Bft)
23.05.2018 14:55 19,8 C 16,4 C 19,8 C 19,7 C 19,6 C 0,0 C 70 % 73 % 1020,5 hPa 0,0 l/m 4,7 km/h (1 Bft) O-NO 67 0 min 14,2 C 19,6 C 4,2 km/h (1 Bft)
23.05.2018 15:00 19,7 C 16,4 C 19,5 C 19,6 C 19,4 C 0,0 C 70 % 74 % 1020,5 hPa 0,0 l/m 5,0 km/h (1 Bft) NO 45 0 min 14,1 C 19,4 C 5,3 km/h (1 Bft)
23.05.2018 15:05 19,5 C 16,4 C 19,4 C 19,4 C 19,1 C 0,0 C 71 % 74 % 1020,5 hPa 0,0 l/m 3,9 km/h (1 Bft) O-NO 67 0 min 14,1 C 19,1 C 0,0 km/h (0 Bft)
23.05.2018 15:10 19,3 C 16,4 C 19,3 C 19,0 C 18,3 C 0,0 C 71 % 75 % 1020,5 hPa 0,0 l/m 1,8 km/h (1 Bft) N 360 0 min 13,9 C 18,3 C 0,0 km/h (0 Bft)
23.05.2018 15:15 19,1 C 16,4 C 18,9 C 18,6 C 17,5 C 0,0 C 72 % 76 % 1020,9 hPa 0,0 l/m 1,4 km/h (1 Bft) NO 45 0 min 13,9 C 17,5 C 5,5 km/h (1 Bft)
23.05.2018 15:20 18,9 C 16,5 C 18,4 C 18,2 C 16,9 C 0,0 C 74 % 79 % 1020,9 hPa 0,0 l/m 1,8 km/h (1 Bft) O-NO 67 0 min 14,2 C 16,9 C 1,9 km/h (1 Bft)
23.05.2018 15:25 18,6 C 16,5 C 18,1 C 17,9 C 16,6 C 0,0 C 75 % 80 % 1020,9 hPa 0,0 l/m 1,8 km/h (1 Bft) NO 45 0 min 14,1 C 16,6 C 2,3 km/h (1 Bft)
23.05.2018 15:30 18,5 C 16,7 C 17,8 C 17,8 C 16,5 C 0,0 C 76 % 82 % 1020,9 hPa 0,0 l/m 0,8 km/h (0 Bft) O-NO 67 0 min 14,2 C 16,5 C 3,2 km/h (1 Bft)
23.05.2018 15:35 18,2 C 16,8 C 17,6 C 17,6 C 16,3 C 0,0 C 77 % 84 % 1020,9 hPa 0,0 l/m 0,8 km/h (0 Bft) N-NO 22 0 min 14,1 C 16,3 C 3,1 km/h (1 Bft)
23.05.2018 15:40 18,1 C 16,9 C 17,3 C 17,5 C 16,3 C 0,0 C 79 % 86 % 1020,9 hPa 0,0 l/m 2,4 km/h (1 Bft) O-NO 67 0 min 14,4 C 16,3 C 3,2 km/h (1 Bft)
23.05.2018 15:45 17,9 C 17,0 C 17,3 C 17,4 C 16,3 C 0,0 C 80 % 86 % 1020,9 hPa 0,7 l/m 2,6 km/h (1 Bft) NO 45 0 min 14,4 C 16,3 C 0,0 km/h (0 Bft)
23.05.2018 15:50 17,8 C 17,0 C 17,1 C 17,3 C 16,3 C 0,0 C 81 % 86 % 1020,9 hPa 0,0 l/m 1,1 km/h (1 Bft) N-NO 22 0 min 14,5 C 16,3 C 0,0 km/h (0 Bft)
23.05.2018 15:55 17,7 C 17,0 C 17,1 C 17,3 C 16,5 C 0,0 C 82 % 87 % 1020,6 hPa 0,0 l/m 0,2 km/h (0 Bft) W 270 0 min 14,6 C 16,5 C 0,0 km/h (0 Bft)
23.05.2018 16:00 17,7 C 17,0 C 16,9 C 17,3 C 16,6 C 0,0 C 82 % 88 % 1020,6 hPa 0,0 l/m 0,0 km/h (0 Bft) O-SO 112 0 min 14,6 C 16,6 C 0,0 km/h (0 Bft)
23.05.2018 16:05 17,7 C 17,0 C 16,9 C 17,3 C 16,6 C 0,0 C 82 % 89 % 1020,6 hPa 0,7 l/m 0,0 km/h (0 Bft) SO 135 0 min 14,6 C 16,6 C 0,0 km/h (0 Bft)
23.05.2018 16:11 17,5 C 17,0 C 17,0 C 17,2 C 16,6 C 0,0 C 82 % 89 % 1020,6 hPa 0,0 l/m 0,0 km/h (0 Bft) N 0 0 min 14,4 C 16,6 C 0,0 km/h (0 Bft)
23.05.2018 16:26 17,4 C 17,0 C 17,1 C 17,2 C 16,7 C 0,0 C 83 % 88 % 1020,4 hPa 0,7 l/m 0,0 km/h (0 Bft) S-SW 202 0 min 14,5 C 16,7 C 0,0 km/h (0 Bft)
23.05.2018 16:40 17,2 C 16,9 C 17,3 C 17,0 C 16,6 C 0,0 C 84 % 84 % 1020,2 hPa 0,0 l/m 0,0 km/h (0 Bft) O-NO 67 0 min 14,5 C 16,6 C 0,0 km/h (0 Bft)
23.05.2018 16:45 17,2 C 16,9 C 17,2 C 17,0 C 16,7 C 0,0 C 84 % 82 % 1020,2 hPa 0,0 l/m 0,0 km/h (0 Bft) S 180 0 min 14,5 C 16,7 C 0,0 km/h (0 Bft)
23.05.2018 16:50 17,1 C 16,9 C 17,2 C 17,0 C 16,8 C 0,0 C 84 % 80 % 1020,2 hPa 0,7 l/m 0,0 km/h (0 Bft) W-SW 247 0 min 14,4 C 16,8 C 0,0 km/h (0 Bft)
23.05.2018 16:55 17,0 C 16,9 C 17,2 C 16,9 C 16,8 C 0,0 C 84 % 78 % 1020,0 hPa 0,0 l/m 0,0 km/h (0 Bft) S 180 0 min 14,3 C 16,8 C 0,0 km/h (0 Bft)
23.05.2018 17:00 17,0 C 16,9 C 17,3 C 16,9 C 16,8 C 0,0 C 84 % 76 % 1020,0 hPa 0,0 l/m 0,0 km/h (0 Bft) S-SO 157 0 min 14,3 C 16,8 C 0,0 km/h (0 Bft)
23.05.2018 17:05 16,9 C 17,0 C 17,2 C 16,9 C 16,8 C 0,0 C 84 % 76 % 1020,0 hPa 0,0 l/m 0,0 km/h (0 Bft) SW 225 0 min 14,2 C 16,8 C 0,0 km/h (0 Bft)
23.05.2018 17:10 16,9 C 17,0 C 17,1 C 16,9 C 16,9 C 0,0 C 85 % 75 % 1020,0 hPa 0,0 l/m 0,0 km/h (0 Bft) S 180 0 min 14,4 C 16,9 C 0,0 km/h (0 Bft)
23.05.2018 17:15 16,8 C 17,0 C 17,0 C 17,0 C 17,0 C 0,2 C 85 % 74 % 1020,1 hPa 0,0 l/m 0,0 km/h (0 Bft) SW 225 0 min 14,3 C 17,0 C 0,0 km/h (0 Bft)
23.05.2018 17:20 16,9 C 17,0 C 17,0 C 17,3 C 17,3 C 0,4 C 85 % 72 % 1020,1 hPa 0,0 l/m 0,0 km/h (0 Bft) S-SW 202 0 min 14,4 C 17,3 C 0,0 km/h (0 Bft)
23.05.2018 17:25 16,9 C 17,0 C 17,1 C 17,4 C 17,4 C 0,5 C 85 % 71 % 1020,1 hPa 0,0 l/m 0,0 km/h (0 Bft) SO 135 0 min 14,4 C 17,4 C 0,0 km/h (0 Bft)
23.05.2018 17:30 16,9 C 17,0 C 17,2 C 17,7 C 17,7 C 0,8 C 85 % 70 % 1020,1 hPa 0,0 l/m 0,0 km/h (0 Bft) W-NW 292 0 min 14,4 C 17,7 C 0,0 km/h (0 Bft)
23.05.2018 17:35 16,9 C 17,0 C 17,2 C 18,1 C 18,1 C 1,2 C 85 % 69 % 1019,6 hPa 0,0 l/m 0,0 km/h (0 Bft) W-SW 247 0 min 14,4 C 18,1 C 0,0 km/h (0 Bft)
23.05.2018 17:40 16,9 C 17,0 C 17,4 C 18,5 C 18,5 C 1,6 C 86 % 68 % 1019,6 hPa 0,0 l/m 0,0 km/h (0 Bft) W-SW 247 0 min 14,5 C 18,5 C 0,0 km/h (0 Bft)
23.05.2018 17:45 17,1 C 17,0 C 17,6 C 18,7 C 18,7 C 1,6 C 86 % 68 % 1019,6 hPa 0,0 l/m 0,0 km/h (0 Bft) N-NW 337 0 min 14,7 C 18,7 C 0,0 km/h (0 Bft)
23.05.2018 17:50 17,3 C 17,0 C 17,7 C 18,9 C 18,9 C 1,6 C 85 % 70 % 1019,6 hPa 0,0 l/m 0,2 km/h (0 Bft) SO 135 0 min 14,8 C 18,9 C 0,0 km/h (0 Bft)
23.05.2018 17:55 17,3 C 17,1 C 17,6 C 18,9 C 18,9 C 1,6 C 85 % 70 % 1019,3 hPa 0,0 l/m 0,5 km/h (0 Bft) O-NO 67 0 min 14,8 C 18,9 C 0,0 km/h (0 Bft)
23.05.2018 18:00 17,4 C 17,1 C 17,8 C 19,4 C 19,4 C 2,0 C 85 % 68 % 1019,3 hPa 0,0 l/m 0,5 km/h (0 Bft) O-SO 112 0 min 14,8 C 19,4 C 0,0 km/h (0 Bft)
23.05.2018 18:05 17,4 C 17,1 C 18,0 C 20,3 C 20,3 C 2,9 C 85 % 69 % 1019,3 hPa 0,0 l/m 0,3 km/h (0 Bft) O 90 0 min 14,8 C 20,3 C 2,7 km/h (1 Bft)
23.05.2018 18:11 17,7 C 17,1 C 18,2 C 21,5 C 21,5 C 3,8 C 85 % 71 % 1019,3 hPa 0,0 l/m 0,5 km/h (0 Bft) N 0 6 min 15,1 C 21,5 C 2,4 km/h (1 Bft)
23.05.2018 18:19 17,6 C 17,1 C 18,3 C 21,6 C 21,6 C 4,0 C 85 % 71 % 1019,9 hPa 0,0 l/m 0,8 km/h (0 Bft) O-NO 67 8 min 15,0 C 21,6 C 2,1 km/h (1 Bft)
23.05.2018 18:20 17,7 C 17,1 C 18,2 C 20,7 C 20,7 C 3,0 C 85 % 72 % 1019,9 hPa 0,0 l/m 1,6 km/h (1 Bft) O-NO 67 0 min 15,1 C 20,7 C 2,6 km/h (1 Bft)
23.05.2018 18:25 17,8 C 17,1 C 18,3 C 20,1 C 20,1 C 2,3 C 85 % 72 % 1019,9 hPa 0,0 l/m 1,3 km/h (1 Bft) O-SO 112 0 min 15,2 C 20,1 C 0,0 km/h (0 Bft)
23.05.2018 18:30 17,9 C 17,1 C 18,2 C 19,6 C 19,6 C 1,7 C 85 % 72 % 1019,9 hPa 0,0 l/m 0,3 km/h (0 Bft) NO 45 0 min 15,3 C 19,6 C 0,0 km/h (0 Bft)
23.05.2018 18:35 17,9 C 17,1 C 18,3 C 19,4 C 19,4 C 1,5 C 85 % 71 % 1019,7 hPa 0,0 l/m 0,2 km/h (0 Bft) NO 45 0 min 15,3 C 19,4 C 0,0 km/h (0 Bft)
23.05.2018 18:40 18,0 C 17,1 C 18,4 C 19,5 C 19,5 C 1,5 C 85 % 71 % 1019,7 hPa 0,0 l/m 0,0 km/h (0 Bft) NO 45 0 min 15,4 C 19,5 C 0,0 km/h (0 Bft)
23.05.2018 18:45 18,1 C 17,1 C 18,5 C 20,0 C 20,0 C 1,9 C 85 % 70 % 1019,7 hPa 0,0 l/m 0,0 km/h (0 Bft) N-NO 22 0 min 15,5 C 20,0 C 0,0 km/h (0 Bft)
23.05.2018 18:50 18,2 C 17,1 C 18,7 C 21,4 C 21,4 C 3,2 C 85 % 68 % 1019,7 hPa 0,0 l/m 0,0 km/h (0 Bft) W-SW 247 5 min 15,6 C 21,4 C 0,0 km/h (0 Bft)
23.05.2018 18:55 18,3 C 17,1 C 18,8 C 22,3 C 22,3 C 4,0 C 85 % 69 % 1019,3 hPa 0,0 l/m 0,3 km/h (0 Bft) W-NW 292 5 min 15,7 C 22,3 C 1,6 km/h (1 Bft)
23.05.2018 19:00 18,5 C 17,1 C 18,9 C 22,1 C 22,1 C 3,6 C 85 % 72 % 1019,3 hPa 0,0 l/m 0,3 km/h (0 Bft) NO 45 5 min 15,9 C 22,1 C 0,0 km/h (0 Bft)
23.05.2018 19:05 18,7 C 17,1 C 18,9 C 21,6 C 21,6 C 2,9 C 85 % 72 % 1019,3 hPa 0,0 l/m 0,3 km/h (0 Bft) O-NO 67 5 min 16,1 C 21,6 C 2,6 km/h (1 Bft)
23.05.2018 19:10 18,6 C 17,2 C 19,0 C 20,8 C 20,8 C 2,2 C 85 % 72 % 1019,3 hPa 0,0 l/m 0,2 km/h (0 Bft) O-NO 67 0 min 16,0 C 20,8 C 0,0 km/h (0 Bft)
23.05.2018 19:15 18,7 C 17,2 C 19,1 C 20,6 C 20,6 C 1,9 C 85 % 73 % 1019,4 hPa 0,0 l/m 0,0 km/h (0 Bft) NO 45 0 min 16,1 C 20,6 C 0,0 km/h (0 Bft)
23.05.2018 19:20 18,8 C 17,2 C 19,1 C 20,4 C 20,4 C 1,6 C 85 % 73 % 1019,4 hPa 0,0 l/m 0,0 km/h (0 Bft) NO 45 0 min 16,2 C 20,4 C 0,0 km/h (0 Bft)
23.05.2018 19:25 18,8 C 17,1 C 19,1 C 20,3 C 20,3 C 1,5 C 84 % 74 % 1019,4 hPa 0,0 l/m 0,2 km/h (0 Bft) O-NO 67 0 min 16,0 C 20,3 C 0,0 km/h (0 Bft)
23.05.2018 19:30 18,9 C 17,1 C 19,1 C 20,2 C 20,2 C 1,3 C 84 % 75 % 1019,4 hPa 0,0 l/m 0,2 km/h (0 Bft) N-NO 22 0 min 16,1 C 20,2 C 0,0 km/h (0 Bft)
23.05.2018 19:35 18,9 C 17,1 C 19,1 C 20,0 C 20,0 C 1,1 C 84 % 75 % 1019,6 hPa 0,0 l/m 0,0 km/h (0 Bft) O 90 0 min 16,1 C 20,0 C 0,0 km/h (0 Bft)
23.05.2018 19:40 18,9 C 17,2 C 19,0 C 19,9 C 19,9 C 1,0 C 84 % 75 % 1019,6 hPa 0,0 l/m 0,0 km/h (0 Bft) S-SW 202 0 min 16,1 C 19,9 C 0,0 km/h (0 Bft)
23.05.2018 19:45 19,0 C 17,1 C 18,9 C 19,7 C 19,7 C 0,7 C 84 % 75 % 1019,6 hPa 0,0 l/m 0,0 km/h (0 Bft) N-NO 22 0 min 16,2 C 19,7 C 0,0 km/h (0 Bft)
23.05.2018 19:50 18,9 C 17,2 C 18,8 C 19,6 C 19,6 C 0,7 C 84 % 75 % 1019,6 hPa 0,0 l/m 0,0 km/h (0 Bft) NW 315 0 min 16,1 C 19,6 C 0,0 km/h (0 Bft)
23.05.2018 19:55 18,9 C 17,2 C 18,8 C 19,5 C 19,5 C 0,6 C 84 % 75 % 1019,2 hPa 0,0 l/m 0,0 km/h (0 Bft) O-NO 67 0 min 16,1 C 19,5 C 0,0 km/h (0 Bft)
23.05.2018 20:00 18,9 C 17,2 C 18,6 C 19,3 C 19,3 C 0,4 C 84 % 75 % 1019,2 hPa 0,0 l/m 0,0 km/h (0 Bft) N-NO 22 0 min 16,1 C 19,3 C 0,0 km/h (0 Bft)
23.05.2018 20:05 18,9 C 17,2 C 18,6 C 19,2 C 19,2 C 0,3 C 84 % 75 % 1019,2 hPa 0,0 l/m 0,0 km/h (0 Bft) NO 45 0 min 16,1 C 19,2 C 0,0 km/h (0 Bft)
23.05.2018 20:10 18,8 C 17,2 C 18,5 C 19,0 C 19,0 C 0,2 C 84 % 74 % 1019,2 hPa 0,0 l/m 0,0 km/h (0 Bft) O-NO 67 0 min 16,0 C 19,0 C 0,0 km/h (0 Bft)
23.05.2018 20:15 18,7 C 17,2 C 18,3 C 18,8 C 18,8 C 0,1 C 84 % 74 % 1019,3 hPa 0,0 l/m 0,0 km/h (0 Bft) O-NO 67 0 min 15,9 C 18,8 C 0,0 km/h (0 Bft)
23.05.2018 20:20 18,5 C 17,2 C 18,1 C 18,6 C 18,6 C 0,1 C 84 % 74 % 1019,3 hPa 0,0 l/m 0,0 km/h (0 Bft) O-NO 67 0 min 15,7 C 18,6 C 0,0 km/h (0 Bft)
23.05.2018 20:25 18,4 C 17,2 C 18,0 C 18,4 C 18,4 C 0,0 C 84 % 73 % 1019,3 hPa 0,0 l/m 0,0 km/h (0 Bft) NO 45 0 min 15,6 C 18,4 C 0,0 km/h (0 Bft)
23.05.2018 20:30 18,3 C 17,2 C 17,9 C 18,3 C 18,3 C 0,0 C 84 % 72 % 1019,3 hPa 0,0 l/m 0,0 km/h (0 Bft) O-NO 67 0 min 15,5 C 18,3 C 0,0 km/h (0 Bft)
23.05.2018 20:35 18,2 C 17,2 C 17,8 C 18,2 C 18,2 C 0,0 C 84 % 71 % 1019,6 hPa 0,0 l/m 0,0 km/h (0 Bft) O-NO 67 0 min 15,4 C 18,2 C 0,0 km/h (0 Bft)
23.05.2018 20:40 18,0 C 17,2 C 17,8 C 18,2 C 18,2 C 0,2 C 85 % 70 % 1019,6 hPa 0,0 l/m 0,0 km/h (0 Bft) O-NO 67 0 min 15,4 C 18,2 C 0,0 km/h (0 Bft)
23.05.2018 20:45 18,0 C 17,2 C 17,7 C 18,2 C 18,2 C 0,2 C 85 % 70 % 1019,6 hPa 0,0 l/m 0,0 km/h (0 Bft) O-NO 67 0 min 15,4 C 18,2 C 0,0 km/h (0 Bft)
23.05.2018 20:50 17,8 C 17,2 C 17,6 C 18,0 C 18,0 C 0,2 C 85 % 69 % 1019,6 hPa 0,0 l/m 0,0 km/h (0 Bft) N-NO 22 5 min 15,2 C 18,0 C 0,0 km/h (0 Bft)
23.05.2018 20:55 17,9 C 17,2 C 17,5 C 17,9 C 17,8 C 0,0 C 85 % 69 % 1019,7 hPa 0,0 l/m 0,0 km/h (0 Bft) O-NO 67 0 min 15,3 C 17,8 C 0,0 km/h (0 Bft)
23.05.2018 21:00 17,7 C 17,2 C 17,3 C 17,7 C 17,6 C 0,0 C 85 % 69 % 1019,7 hPa 0,0 l/m 0,0 km/h (0 Bft) N-NO 22 0 min 15,1 C 17,6 C 0,0 km/h (0 Bft)
23.05.2018 21:05 17,7 C 17,2 C 17,3 C 17,6 C 17,4 C 0,0 C 85 % 69 % 1019,7 hPa 0,0 l/m 0,0 km/h (0 Bft) O-NO 67 0 min 15,1 C 17,4 C 0,0 km/h (0 Bft)
23.05.2018 21:10 17,5 C 17,2 C 17,0 C 17,4 C 17,3 C 0,0 C 85 % 69 % 1019,7 hPa 0,0 l/m 0,0 km/h (0 Bft) O-NO 67 0 min 14,9 C 17,3 C 0,0 km/h (0 Bft)
23.05.2018 21:15 17,4 C 17,2 C 17,0 C 17,4 C 17,3 C 0,0 C 85 % 69 % 1019,9 hPa 0,0 l/m 0,0 km/h (0 Bft) NO 45 0 min 14,8 C 17,3 C 0,0 km/h (0 Bft)
23.05.2018 21:20 17,2 C 17,2 C 16,9 C 17,2 C 17,2 C 0,0 C 85 % 69 % 1019,9 hPa 0,0 l/m 0,6 km/h (0 Bft) NO 45 0 min 14,7 C 17,2 C 0,0 km/h (0 Bft)
23.05.2018 21:25 17,1 C 17,2 C 16,9 C 17,2 C 17,2 C 0,1 C 85 % 68 % 1019,9 hPa 0,0 l/m 1,0 km/h (0 Bft) O-NO 67 0 min 14,6 C 17,2 C 1,6 km/h (1 Bft)
23.05.2018 21:30 17,1 C 17,2 C 16,7 C 17,2 C 17,2 C 0,1 C 85 % 68 % 1019,9 hPa 0,0 l/m 0,8 km/h (0 Bft) NO 45 0 min 14,6 C 17,2 C 0,0 km/h (0 Bft)
23.05.2018 21:35 17,0 C 17,2 C 16,6 C 17,1 C 17,1 C 0,1 C 85 % 68 % 1020,1 hPa 0,0 l/m 0,5 km/h (0 Bft) O-NO 67 0 min 14,5 C 17,1 C 0,0 km/h (0 Bft)
23.05.2018 21:40 16,8 C 17,2 C 16,7 C 17,1 C 17,1 C 0,3 C 85 % 67 % 1020,1 hPa 0,0 l/m 0,0 km/h (0 Bft) NO 45 0 min 14,3 C 17,1 C 0,0 km/h (0 Bft)
23.05.2018 21:45 16,8 C 17,2 C 16,5 C 17,0 C 17,0 C 0,2 C 85 % 67 % 1020,1 hPa 0,0 l/m 0,0 km/h (0 Bft) O-NO 67 0 min 14,3 C 17,0 C 0,0 km/h (0 Bft)
23.05.2018 21:50 16,7 C 17,3 C 16,5 C 17,0 C 17,0 C 0,3 C 85 % 67 % 1020,1 hPa 0,0 l/m 0,0 km/h (0 Bft) NO 45 0 min 14,2 C 17,0 C 0,0 km/h (0 Bft)
23.05.2018 21:55 16,6 C 17,3 C 16,3 C 17,0 C 17,0 C 0,4 C 85 % 67 % 1019,9 hPa 0,0 l/m 0,3 km/h (0 Bft) NO 45 0 min 14,1 C 17,0 C 2,3 km/h (1 Bft)
23.05.2018 22:00 16,6 C 17,3 C 16,2 C 17,0 C 17,0 C 0,4 C 85 % 68 % 1019,9 hPa 0,0 l/m 1,4 km/h (1 Bft) O-NO 67 0 min 14,1 C 17,0 C 2,3 km/h (1 Bft)
23.05.2018 22:05 16,6 C 17,3 C 16,2 C 17,0 C 17,0 C 0,4 C 85 % 68 % 1019,9 hPa 0,0 l/m 2,1 km/h (1 Bft) NO 45 0 min 14,1 C 17,0 C 1,8 km/h (1 Bft)
23.05.2018 22:10 16,7 C 17,3 C 16,0 C 17,0 C 17,0 C 0,3 C 85 % 69 % 1019,9 hPa 0,0 l/m 1,8 km/h (1 Bft) O-NO 67 0 min 14,2 C 17,0 C 0,0 km/h (0 Bft)
23.05.2018 22:15 16,6 C 17,3 C 16,0 C 16,9 C 16,9 C 0,3 C 85 % 69 % 1020,1 hPa 0,0 l/m 1,1 km/h (1 Bft) O-NO 67 0 min 14,1 C 16,9 C 1,8 km/h (1 Bft)
23.05.2018 22:20 16,5 C 17,3 C 15,9 C 16,8 C 16,8 C 0,3 C 85 % 69 % 1020,1 hPa 0,0 l/m 0,2 km/h (0 Bft) O-NO 67 0 min 14,0 C 16,8 C 0,0 km/h (0 Bft)
23.05.2018 22:25 16,5 C 17,3 C 15,9 C 16,7 C 16,7 C 0,2 C 85 % 69 % 1020,1 hPa 0,0 l/m 0,2 km/h (0 Bft) NO 45 0 min 14,0 C 16,7 C 0,0 km/h (0 Bft)
23.05.2018 22:30 16,4 C 17,2 C 15,9 C 16,7 C 16,7 C 0,3 C 85 % 68 % 1020,1 hPa 0,0 l/m 0,0 km/h (0 Bft) NO 45 0 min 13,9 C 16,7 C 0,0 km/h (0 Bft)
23.05.2018 22:35 16,4 C 17,2 C 15,9 C 16,6 C 16,6 C 0,2 C 85 % 68 % 1019,9 hPa 0,0 l/m 0,0 km/h (0 Bft) NO 45 0 min 13,9 C 16,6 C 0,0 km/h (0 Bft)
23.05.2018 22:40 16,4 C 17,3 C 15,7 C 16,5 C 16,5 C 0,1 C 84 % 69 % 1019,9 hPa 0,0 l/m 0,5 km/h (0 Bft) NO 45 0 min 13,7 C 16,5 C 0,0 km/h (0 Bft)
23.05.2018 22:45 16,4 C 17,2 C 15,6 C 16,5 C 16,5 C 0,1 C 84 % 69 % 1019,9 hPa 0,0 l/m 0,6 km/h (0 Bft) O-NO 67 0 min 13,7 C 16,5 C 0,0 km/h (0 Bft)
23.05.2018 22:50 16,3 C 17,2 C 15,6 C 16,4 C 16,4 C 0,1 C 85 % 68 % 1019,9 hPa 0,0 l/m 0,3 km/h (0 Bft) NO 45 0 min 13,8 C 16,4 C 0,0 km/h (0 Bft)
23.05.2018 22:55 16,3 C 17,3 C 15,6 C 16,3 C 16,3 C 0,0 C 84 % 68 % 1020,1 hPa 0,0 l/m 0,0 km/h (0 Bft) NO 45 0 min 13,6 C 16,3 C 0,0 km/h (0 Bft)
23.05.2018 23:00 16,1 C 17,2 C 15,5 C 16,1 C 16,0 C 0,0 C 85 % 68 % 1020,1 hPa 0,0 l/m 0,0 km/h (0 Bft) NO 45 0 min 13,6 C 16,0 C 0,0 km/h (0 Bft)
23.05.2018 23:05 16,1 C 17,2 C 15,5 C 16,0 C 15,9 C 0,0 C 85 % 68 % 1020,1 hPa 0,0 l/m 0,0 km/h (0 Bft) NO 45 0 min 13,6 C 15,9 C 0,0 km/h (0 Bft)
23.05.2018 23:10 16,0 C 17,2 C 15,3 C 15,8 C 15,5 C 0,0 C 85 % 67 % 1020,1 hPa 0,0 l/m 0,0 km/h (0 Bft) O-SO 112 0 min 13,5 C 15,5 C 0,0 km/h (0 Bft)
23.05.2018 23:15 15,9 C 17,3 C 15,2 C 15,7 C 15,4 C 0,0 C 85 % 67 % 1020,1 hPa 0,0 l/m 0,0 km/h (0 Bft) NO 45 0 min 13,4 C 15,4 C 0,0 km/h (0 Bft)
23.05.2018 23:20 15,8 C 17,2 C 15,1 C 15,6 C 15,2 C 0,0 C 85 % 67 % 1020,1 hPa 0,0 l/m 0,0 km/h (0 Bft) N-NO 22 0 min 13,3 C 15,2 C 0,0 km/h (0 Bft)
23.05.2018 23:25 15,8 C 17,2 C 15,1 C 15,6 C 15,2 C 0,0 C 85 % 67 % 1020,1 hPa 0,0 l/m 0,0 km/h (0 Bft) N-NO 22 0 min 13,3 C 15,2 C 0,0 km/h (0 Bft)
23.05.2018 23:30 15,6 C 17,2 C 15,1 C 15,4 C 15,1 C 0,0 C 85 % 66 % 1020,1 hPa 0,0 l/m 0,0 km/h (0 Bft) N-NO 22 0 min 13,1 C 15,1 C 0,0 km/h (0 Bft)
23.05.2018 23:35 15,7 C 17,2 C 15,0 C 15,5 C 15,1 C 0,0 C 85 % 67 % 1020,1 hPa 0,0 l/m 0,0 km/h (0 Bft) N-NO 22 0 min 13,2 C 15,1 C 0,0 km/h (0 Bft)
23.05.2018 23:40 15,5 C 17,2 C 14,9 C 15,4 C 15,1 C 0,0 C 85 % 66 % 1020,1 hPa 0,0 l/m 0,0 km/h (0 Bft) O-NO 67 0 min 13,0 C 15,1 C 0,0 km/h (0 Bft)
23.05.2018 23:45 15,4 C 17,2 C 14,8 C 15,3 C 15,2 C 0,0 C 85 % 66 % 1020,1 hPa 0,0 l/m 0,0 km/h (0 Bft) O-NO 67 0 min 12,9 C 15,2 C 0,0 km/h (0 Bft)
23.05.2018 23:50 15,4 C 17,2 C 14,8 C 15,4 C 15,3 C 0,0 C 85 % 66 % 1020,1 hPa 0,0 l/m 0,2 km/h (0 Bft) N-NO 22 0 min 12,9 C 15,3 C 0,0 km/h (0 Bft)
23.05.2018 23:55 15,3 C 17,2 C 14,8 C 15,3 C 15,2 C 0,0 C 85 % 66 % 1020,1 hPa 0,0 l/m 0,2 km/h (0 Bft) N-NO 22 0 min 12,8 C 15,2 C 0,0 km/h (0 Bft)
_ Min-Zeit 05:40 07:55 05:15 05:40 05:10 00:00 12:45 12:50 00:00 - 00:00 - - - 05:40 05:10 00:00
Minimum _ 8,9 C 15,5 C 9,7 C 8,8 C 8,4 C 0,0 C 57 % 59 % 1016,3 hPa - 0,0 km/h (0 Bft) - - - 6,5 C 8,4 C 0,0 km/h (0 Bft)
_ Max-Zeit 12:45 21:50 12:40 12:11 12:11 07:50 07:10 06:26 15:15 15:45 11:05 - - 08:26 19:45 12:11 13:05
Maximum _ 23,9 C 17,3 C 23,9 C 27,9 C 27,9 C 8,7 C 87 % 89 % 1020,9 hPa 0,7 l/m 9,2 km/h
O-NO (2 Bft)
- - 15 min 16,2 C 27,9 C 19,5 km/h
W-SW (3 Bft)
Durchschnitt _ 16,2 C 16,4 C 16,3 C 17,5 C 17,3 C 1,4 C 78 % 76 % 1019,0 hPa #2,7 l/m 1,6 km/h (1 Bft) O-NO - #5:13 h 12,2 C 17,3 C 2,5 km/h (1 Bft)
2018 www.wetterstation-wechselburg.de